Flag Weather past 2 weeks in Achim, Lower Saxony, Germany

Now
55 °F

Fog.


Feels Like: 55 °F
Forecast: 51 / 63 °F
Wind: 2 mph from Southeast

Location: Bremen Airport

Current Time: Oct 31, 2014 at 7:49:37 PM

Latest Report: Oct 31, 2014 at 7:20 PM


Visibility: N/A

Pressure: 30.15 "Hg

Humidity: 94%

Dew point: 54 °F

Location of AchimLocation

Historic Weather in Achim — Graph

°F

Achim temperature yesterday

Maximum temperature yesterday: 52 °F (at 12:50 PM)
Minimum temperature yesterday: 41 °F (at 7:20 AM)
Average temperature yesterday: 49 °F

Past Weeks' High & Low Weather Summary

 TemperatureHumidityPressure
High73 °F (Oct 19, 1:50 PM)100% (Oct 16, 9:20 PM)30.24 "Hg (Oct 16, 9:20 PM)
Low39 °F (Oct 28, 9:50 PM)61% (Oct 19, 1:50 PM)29.39 "Hg (Oct 21, 4:50 PM)
Average53 °F88%30.02 "Hg
* Reported Oct 16 7:20 PM — Oct 31 6:50 PM, Achim, Weather by CustomWeather, © 2014

Note: Actual official high and low records may vary slightly from our data, if they occured in-between our weather recording intervals... More about our weather records

Advertising

Achim weather history for previous 24 hours

 ConditionsComfort  
Time TempWeatherWind HumidityBarometerVisibility
6:50 PM
Oct 31
57 °FClear.3 mph88%30.15 "Hg10 mi
6:20 PM57 °FClear.3 mph88%30.15 "Hg10 mi
5:50 PM57 °FClear.5 mph88%30.15 "Hg10 mi
5:20 PM59 °FClear.5 mph82%30.15 "Hg10 mi
4:50 PM59 °FSunny.3 mph88%30.15 "Hg10 mi
4:20 PM59 °FSunny.5 mph88%30.15 "Hg10 mi
3:50 PM61 °FPassing clouds.5 mph83%30.15 "HgN/A
3:20 PM63 °FSunny.6 mph77%30.15 "Hg10 mi
2:50 PM63 °FSunny.8 mph77%30.15 "Hg10 mi
2:20 PM63 °FSunny.7 mph73%30.15 "Hg10 mi
1:50 PM63 °FSunny.7 mph73%30.15 "Hg10 mi
1:20 PM63 °FPassing clouds.7 mph77%30.18 "HgN/A
12:50 PM61 °FPassing clouds.7 mph77%30.18 "HgN/A
12:20 PM61 °FPassing clouds.7 mph83%30.18 "HgN/A
11:50 AM61 °FSunny.6 mph83%30.18 "Hg10 mi
11:20 AM59 °FPassing clouds.6 mph82%30.18 "HgN/A
10:50 AM59 °FSunny.7 mph88%30.18 "Hg10 mi
10:20 AM57 °FSunny.8 mph88%30.18 "Hg10 mi
9:50 AM55 °FClear.6 mph94%30.18 "Hg5 mi
9:20 AM54 °FClear.6 mph100%30.18 "Hg4 mi
8:50 AM52 °FFog.5 mph100%30.18 "Hg2 mi
8:20 AM48 °FCool.3 mph100%30.18 "Hg2 mi
7:50 AM48 °FCool.3 mph100%30.18 "Hg1 mi
7:20 AM48 °FCool.5 mph100%30.18 "Hg2 mi
6:50 AM48 °FFog.3 mph100%30.18 "Hg1 mi
6:20 AM48 °FFog.3 mph94%30.18 "Hg1 mi
5:50 AM48 °FFog.2 mph100%30.18 "Hg1 mi
5:20 AM48 °FFog.2 mph100%30.18 "Hg1 mi
4:50 AM50 °FFog.5 mph94%30.18 "Hg2 mi
4:20 AM50 °FFog.5 mph94%30.18 "Hg2 mi
3:50 AM50 °FFog.5 mph94%30.18 "Hg2 mi
3:20 AM50 °FFog.6 mph94%30.18 "Hg2 mi
2:50 AM50 °FFog.5 mph94%30.18 "Hg2 mi
2:20 AM50 °FFog.3 mph100%30.18 "Hg2 mi
1:50 AM50 °FFog.3 mph100%30.18 "Hg2 mi
1:20 AM50 °FFog.5 mph94%30.21 "Hg2 mi
12:50 AM50 °FClear.5 mph94%30.21 "Hg3 mi
12:20 AM50 °FClear.6 mph94%30.21 "Hg4 mi
11:50 PM
Oct 30
52 °FClear.5 mph94%30.21 "Hg4 mi
11:20 PM52 °FClear.6 mph94%30.21 "Hg4 mi
10:50 PM52 °FClear.5 mph94%30.21 "Hg4 mi
10:20 PM52 °FPartly cloudy.6 mph94%30.21 "Hg4 mi
9:50 PM52 °FPartly cloudy.9 mph94%30.21 "Hg4 mi
9:20 PM52 °FSprinkles. Partly cloudy.8 mph94%30.21 "Hg4 mi
8:50 PM52 °FPassing clouds.6 mph94%30.21 "Hg4 mi
8:20 PM52 °FPassing clouds.7 mph94%30.21 "Hg4 mi
7:50 PM52 °FPassing clouds.7 mph94%30.21 "Hg4 mi
7:20 PM52 °FPassing clouds.7 mph94%30.21 "Hg4 mi
Weather by CustomWeather, © 2014

See weather overviewHow to use our weather pages